Location: Coupvray
(48.8929°N, 2.7967°E)
Time: 21:05:05
(UTC+00:00)

Cosmos 2369 - Pass Details

Date: 14 July 2020
Orbit: 838 x 857 km, 71.0° (Epoch: 14 August)

Event Time Altitude Azimuth Distance (km) Brightness Sun altitude
Rises 01:38:17 0° 332° (NNW) 3,435 7.4 -15.8°
Reaches altitude 10° 01:40:44 10° 333° (NNW) 2,497 6.7 -15.6°
Maximum altitude 01:46:30 82° 61° (ENE) 872 3.8 -15.2°
Drops below altitude 10° 01:52:14 10° 150° (SSE) 2,485 5.8 -14.8°
Sets 01:54:41 0° 151° (SSE) 3,418 6.5 -14.6°
